This demonstration page uses our WeatherBlox Daily Observations layout. Learn more.

Left ArrowRight Arrow

Hourly Observations for January 26, 2016

Temp ( °F °C ) Dew Point ( °F °C ) Humidity (%) Winds ( mph kmh ) Pressure ( in mb ) Visibility ( mi km ) Precip ( " mm )
12:53 am 00:53 Clear 22 -5.6 18 -7.8 85 85 WNW 8 13 30.21 1023 10 16 0.00 0.00
1:28 am 01:28 Cloudy 28 -2 21 -6 74 74 NW 13 20 30.24 1024 10 16 0.00 0.00
1:53 am 01:53 Cloudy 29 -1.7 23 -5 78 78 NW 10 17 30.20 1023 10 16 0.00 0.00
2:53 am 02:53 Mostly Clear 28 -2.2 22 -5.6 78 78 NNW 9 15 30.22 1023 10 16 0.00 0.00
3:53 am 03:53 Clear 22 -5.6 17 -8.3 82 82 W 8 13 30.22 1024 10 16 0.00 0.00
4:53 am 04:53 Clear 22 -5.6 17 -8.3 82 82 W 7 11 30.24 1024 10 16 0.00 0.00
5:53 am 05:53 Clear 21 -6.1 17 -8.3 85 85 W 9 15 30.27 1025 10 16 0.00 0.00
6:53 am 06:53 Clear 20 -6.7 16 -8.9 85 85 NW 9 15 30.29 1026 10 16 0.00 0.00
7:53 am 07:53 Sunny 19 -7.2 14 -10 81 81 WNW 7 11 30.30 1026 10 16 0.00 0.00
8:53 am 08:53 Sunny 23 -5 17 -8.3 78 78 WNW 9 15 30.31 1027 10 16 0.00 0.00
9:53 am 09:53 Sunny 28 -2.2 20 -6.7 72 72 NW 10 17 30.32 1027 10 16 0.00 0.00
10:53 am 10:53 Sunny 31 -0.6 22 -5.6 69 69 WNW 9 15 30.33 1027 10 16 0.00 0.00
11:53 am 11:53 Sunny 34 1.1 24 -4.4 67 67 NW 10 17 30.32 1027 10 16 0.00 0.00
12:53 pm 12:53 Sunny 36 2.2 24 -4.4 62 62 NW 12 19 30.30 1026 10 16 0.00 0.00
1:53 pm 13:53 Sunny 39 3.9 26 -3.3 60 60 NW 9 15 30.27 1025 10 16 0.00 0.00
2:53 pm 14:53 Sunny 41 5 27 -2.8 57 57 NW 7 11 30.25 1025 10 16 0.00 0.00
3:53 pm 15:53 Sunny 42 5.6 27 -2.8 55 55 WNW 7 11 30.25 1025 10 16 0.00 0.00
4:53 pm 16:53 Sunny 41 5 27 -2.8 57 57 W 6 9 30.25 1025 10 16 0.00 0.00
5:53 pm 17:53 Clear 38 3.3 27 -2.8 65 65 WSW 3 6 30.26 1025 10 16 0.00 0.00
6:53 pm 18:53 Clear 32 0 25 -3.9 75 75 Calm 30.27 1025 10 16 0.00 0.00
7:53 pm 19:53 Clear 31 -0.6 24 -4.4 76 76 SSE 3 6 30.28 1025 10 16 0.00 0.00
8:53 pm 20:53 Clear 31 -0.6 24 -4.4 76 76 SSE 6 9 30.28 1026 10 16 0.00 0.00
9:53 pm 21:53 Clear 30 -1.1 24 -4.4 79 79 SSE 5 7 30.27 1025 10 16 0.00 0.00
10:53 pm 22:53 Clear 27 -2.8 22 -5.6 81 81 SSW 3 6 30.27 1025 10 16 0.00 0.00
11:53 pm 23:53 Clear 28 -2.2 23 -5 81 81 SW 3 6 30.27 1025 10 16 0.00 0.00

Powered by AerisWeather